DW8427 Weather Reports


Display with metric or nautical units.
time (UTC)temp
F
wind
direction
speed
MPH
gust
MPH
rain 1hr
in
rain 24hr
in
rain mn
in
humidity
%
barometer
mb
20260905010002 78 100 0.0 8.0 0.00 0.01 0.01 44 1012.1
20260905004502 78 144 0.0 5.0 0.00 0.01 0.01 43 1012.1
20260905003100 79 91 0.0 3.0 0.00 0.01 0.01 43 1012.2
20260905001606 77 288 1.0 5.0 0.00 0.01 0.01 45 1012.1
20260905000058 77 198 1.0 6.0 0.00 0.01 0.01 45 1012.3
20260904234600 78 144 0.0 3.0 0.00 0.01 0.01 45 1012.4
20260904233058 78 39 0.0 3.0 0.00 0.01 0.01 45 1012.4
20260904231555 76 316 1.0 5.0 0.00 0.01 0.01 46 1012.5
20260904230054 76 265 1.0 8.0 0.00 0.01 0.01 47 1012.7
20260904224554 77 161 2.0 4.0 0.00 0.01 0.01 46 1012.9
20260904223052 77 342 2.0 9.0 0.00 0.01 0.01 46 1012.8
20260904221555 78 129 0.0 6.0 0.00 0.01 0.01 45 1012.8
20260904220049 76 283 0.0 6.0 0.00 0.01 0.01 47 1012.9
20260904214557 77 110 0.0 6.0 0.00 0.01 0.01 47 1012.9
20260904213045 77 108 2.0 7.0 0.00 0.01 0.01 46 1013.0
20260904211544 77 122 0.0 5.0 0.00 0.01 0.01 48 1013.0
20260904210040 75 93 1.0 7.0 0.00 0.01 0.01 49 1013.0
20260904204538 75 148 0.0 8.0 0.00 0.01 0.01 49 1013.0
20260904203037 75 73 0.0 4.0 0.00 0.01 0.01 53 1013.0
20260904201533 73 59 1.0 6.0 0.00 0.01 0.01 54 1013.2
20260904200031 72 83 2.0 8.0 0.00 0.01 0.01 55 1013.3
20260904194533 71 227 0.0 2.0 0.00 0.01 0.01 57 1013.5
20260904193029 71 181 4.0 10.0 0.00 0.01 0.01 57 1013.6
20260904191528 70 125 2.0 9.0 0.00 0.01 0.01 57 1013.7
20260904190025 69 99 4.0 9.0 0.00 0.01 0.01 60 1013.8
20260904184526 68 95 0.0 8.0 0.00 0.01 0.01 63 1014.1
20260904183025 68 129 2.0 9.0 0.00 0.01 0.01 63 1014.1
20260904181524 67 145 6.0 11.0 0.00 0.01 0.01 65 1014.1
20260904180038 67 116 4.0 9.0 0.00 0.01 0.01 66 1014.2
20260904174516 66 92 1.0 10.0 0.00 0.01 0.01 69 1014.2
20260904173020 66 145 5.0 9.0 0.00 0.01 0.01 68 1014.1
20260904171514 65 115 5.0 8.0 0.00 0.01 0.01 71 1013.9
20260904170010 64 128 2.0 9.0 0.00 0.01 0.01 76 1013.9
20260904164508 63 127 4.0 9.0 0.00 0.01 0.01 78 1013.9
20260904163005 62 167 4.0 8.0 0.00 0.01 0.01 81 1013.7
20260904161504 61 141 1.0 7.0 0.00 0.01 0.01 84 1013.5
20260904160004 61 117 1.0 4.0 0.00 0.01 0.01 84 1013.5
20260904154601 61 110 2.0 5.0 0.00 0.01 0.01 85 1013.5
20260904153109 61 92 2.0 6.0 0.00 0.01 0.01 85 1013.4
20260904151558 61 142 3.0 7.0 0.00 0.01 0.01 86 1013.4
20260904150100 60 133 1.0 6.0 0.00 0.01 0.01 88 1013.4
20260904144556 60 105 1.0 5.0 0.00 0.01 0.01 88 1013.1
20260904143057 60 129 3.0 5.0 0.00 0.01 0.01 88 1012.9
20260904141550 60 103 2.0 6.0 0.00 0.01 0.01 88 1012.7
20260904140047 60 101 2.0 6.0 0.01 0.01 0.01 88 1012.3
20260904134551 60 113 0.0 4.0 0.01 0.01 0.01 88 1012.2
20260904133057 60 133 3.0 6.0 0.01 0.01 0.01 88 1012.1
20260904131542 60 122 1.0 4.0 0.01 0.01 0.01 88 1012.0
20260904130040 61 131 3.0 6.0 0.00 0.00 0.00 88 1011.9
20260904124539 61 146 3.0 6.0 0.00 0.00 0.00 88 1012.0
20260904123037 60 122 2.0 7.0 0.00 0.00 0.00 88 1011.8
20260904121536 60 111 4.0 7.0 0.00 0.00 0.00 88 1011.7
20260904120050 61 156 1.0 8.0 0.00 0.00 0.00 88 1011.7
20260904114532 61 129 2.0 5.0 0.00 0.00 0.00 88 1011.5
20260904113034 61 114 2.0 5.0 0.00 0.00 0.00 87 1011.6
20260904111530 61 120 0.0 2.0 0.00 0.00 0.00 86 1011.6
20260904110028 61 118 1.0 3.0 0.00 0.00 0.00 85 1011.4
20260904104542 62 147 0.0 3.0 0.00 0.00 0.00 85 1011.3
20260904103027 61 109 1.0 6.0 0.00 0.00 0.00 86 1011.2
20260904101535 62 70 0.0 3.0 0.00 0.00 0.00 87 1011.2
20260904100024 62 110 0.0 2.0 0.00 0.00 0.00 87 1011.2
20260904094530 62 110 0.0 1.0 0.00 0.00 0.00 86 1011.2
20260904093026 62 226 0.0 3.0 0.00 0.00 0.00 86 1011.1
20260904091522 62 103 0.0 3.0 0.00 0.00 0.00 86 1011.0
20260904090021 62 80 2.0 9.0 0.00 0.00 0.00 86 1011.1
20260904084519 62 115 2.0 6.0 0.00 0.00 0.00 85 1011.1
20260904083016 63 195 0.0 3.0 0.00 0.00 0.00 83 1011.2
20260904081514 63 112 1.0 4.0 0.00 0.00 0.00 82 1011.2
20260904080011 64 103 1.0 4.0 0.00 0.00 0.00 79 1011.3
20260904074510 65 115 0.0 4.0 0.00 0.00 0.00 80 1011.3
20260904073008 65 94 2.0 6.0 0.00 0.00 0.00 79 1011.2
20260904071509 65 86 2.0 5.0 0.00 0.00 0.00 79 1011.2
20260904070006 65 122 2.0 5.0 0.00 0.00 0.00 77 1011.2
20260904064502 66 122 1.0 7.0 0.00 0.00 0.00 76 1011.1
20260904063002 66 129 2.0 8.0 0.00 0.00 0.00 76 1011.1
20260904061504 66 127 0.0 5.0 0.00 0.00 0.00 76 1011.2
20260904060121 67 135 0.0 4.0 0.00 0.00 0.00 75 1011.1
20260904054603 67 112 1.0 6.0 0.00 0.00 0.00 76 1011.2
20260904053147 67 84 0.0 6.0 0.00 0.00 0.00 75 1011.3
20260904051610 67 153 1.0 6.0 0.00 0.00 0.00 75 1011.3
20260904050058 67 141 2.0 6.0 0.00 0.00 0.00 75 1011.2
20260904044605 67 144 3.0 6.0 0.00 0.00 0.00 74 1011.2
20260904043104 67 110 1.0 4.0 0.00 0.00 0.00 73 1011.3
20260904041601 68 267 0.0 0.0 0.00 0.00 0.00 73 1011.4
20260904040056 68 176 0.0 0.0 0.00 0.00 0.00 72 1011.3
20260904034555 68 128 0.0 1.0 0.00 0.00 0.00 72 1011.2
20260904033105 68 109 0.0 0.0 0.00 0.00 0.00 72 1011.0
20260904031555 68 109 0.0 0.0 0.00 0.00 0.00 72 1010.9
20260904030054 69 109 0.0 0.0 0.00 0.00 0.00 71 1010.8
20260904024606 69 134 0.0 0.0 0.00 0.00 0.00 71 1011.0
20260904023101 69 136 0.0 1.0 0.00 0.00 0.00 71 1011.0
20260904021551 69 268 0.0 2.0 0.00 0.00 0.00 70 1011.0
20260904020050 69 120 0.0 1.0 0.00 0.00 0.00 70 1011.1
20260904014603 70 327 0.0 3.0 0.00 0.00 0.00 68 1011.1
20260904013049 70 165 0.0 2.0 0.00 0.00 0.00 67 1011.1
20260904011548 71 288 1.0 7.0 0.00 0.00 0.00 67 1011.3